FJI920 YBBN-NWWW

Flight info

Callsign FJI920
Flight time N/A
Altitude 41000
Route GUMKI B578 TEBUR B602 ATPEN B599 AGUTA MIKAX2B
Aircraft A359/H-SDE2E3GHIJ3J4J5LM1ORWXY/LB1D1

Departure

Time N/A
Airport Brisbane International Airport (YBBN)

Arrival

Time 2026-04-26 15:27
Airport La Tontouta International Airport (NWWW)
Time Latitude Longitude Altitude Speed Heading
2026-04-26 14:58 -21.73231 167.46163 40877 ft 549 kts 58°
2026-04-26 14:59 -21.71735 167.49938 40870 ft 553 kts 62°
2026-04-26 14:59 -21.70770 167.53959 40489 ft 560 kts 77°
2026-04-26 14:59 -21.70655 167.58167 39789 ft 570 kts 93°
2026-04-26 14:59 -21.71074 167.60961 39281 ft 574 kts 103°
2026-04-26 15:00 -21.73100 167.66279 38266 ft 575 kts 124°
2026-04-26 15:00 -21.75531 167.69671 37430 ft 569 kts 140°
2026-04-26 15:00 -21.78561 167.72317 36696 ft 555 kts 155°
2026-04-26 15:00 -21.81981 167.74096 35996 ft 539 kts 169°
2026-04-26 15:01 -21.85536 167.75288 35308 ft 533 kts 173°
2026-04-26 15:01 -21.89112 167.76331 34629 ft 532 kts 173°
2026-04-26 15:01 -21.92690 167.77340 33963 ft 531 kts 174°
2026-04-26 15:01 -21.96278 167.78070 33724 ft 522 kts 182°
2026-04-26 15:02 -21.99894 167.78267 33753 ft 517 kts 191°
2026-04-26 15:02 -22.03422 167.77859 33748 ft 502 kts 202°
2026-04-26 15:02 -22.06627 167.76738 33754 ft 485 kts 212°
2026-04-26 15:03 -22.12347 167.73175 33752 ft 466 kts 226°
2026-04-26 15:03 -22.14713 167.70851 33752 ft 455 kts 236°
2026-04-26 15:03 -22.16622 167.68182 33752 ft 444 kts 244°
2026-04-26 15:03 -22.18101 167.65284 33580 ft 438 kts 250°
2026-04-26 15:04 -22.19388 167.62302 33314 ft 438 kts 251°
2026-04-26 15:04 -22.20657 167.59303 33059 ft 440 kts 251°
2026-04-26 15:04 -22.21937 167.56297 32812 ft 441 kts 251°
2026-04-26 15:04 -22.23225 167.53289 32566 ft 443 kts 251°
2026-04-26 15:05 -22.24412 167.50230 32537 ft 441 kts 256°
2026-04-26 15:05 -22.25764 167.43854 32534 ft 432 kts 268°
2026-04-26 15:05 -22.25924 167.40619 32308 ft 430 kts 272°
2026-04-26 15:06 -22.25908 167.37399 32064 ft 430 kts 274°
2026-04-26 15:06 -22.25807 167.34227 31436 ft 426 kts 275°
2026-04-26 15:06 -22.25669 167.31029 30634 ft 427 kts 276°
2026-04-26 15:06 -22.25523 167.27821 29765 ft 429 kts 276°
2026-04-26 15:07 -22.25300 167.22438 28490 ft 425 kts 275°
2026-04-26 15:07 -22.25185 167.19275 27890 ft 420 kts 275°
2026-04-26 15:07 -22.25078 167.16141 27303 ft 415 kts 275°
2026-04-26 15:08 -22.24975 167.13045 26705 ft 410 kts 274°
2026-04-26 15:08 -22.24874 167.09982 26114 ft 406 kts 274°
2026-04-26 15:08 -22.24773 167.06950 25533 ft 403 kts 274°
2026-04-26 15:08 -22.24674 167.03984 24970 ft 399 kts 274°
2026-04-26 15:09 -22.24574 167.01006 24381 ft 396 kts 274°
2026-04-26 15:09 -22.24472 166.98051 23811 ft 393 kts 273°
2026-04-26 15:09 -22.24371 166.95117 23194 ft 390 kts 273°
2026-04-26 15:09 -22.24272 166.92208 22579 ft 385 kts 273°
2026-04-26 15:10 -22.24173 166.89333 22007 ft 381 kts 274°
2026-04-26 15:10 -22.24108 166.87448 21634 ft 379 kts 274°
2026-04-26 15:10 -22.23977 166.83667 20881 ft 375 kts 274°
2026-04-26 15:10 -22.23879 166.80863 20316 ft 373 kts 274°
2026-04-26 15:11 -22.23779 166.78068 19734 ft 372 kts 274°
2026-04-26 15:11 -22.23680 166.75287 19168 ft 369 kts 275°
2026-04-26 15:11 -22.23582 166.72529 18582 ft 367 kts 275°
2026-04-26 15:11 -22.23485 166.69789 17973 ft 364 kts 275°
2026-04-26 15:12 -22.23388 166.67069 17346 ft 360 kts 275°
2026-04-26 15:12 -22.23291 166.64378 16747 ft 357 kts 275°
2026-04-26 15:12 -22.23193 166.61707 16166 ft 355 kts 275°
2026-04-26 15:12 -22.23096 166.59051 15572 ft 353 kts 275°
2026-04-26 15:13 -22.23000 166.56449 14996 ft 350 kts 276°
2026-04-26 15:13 -22.22904 166.53832 14405 ft 348 kts 275°
2026-04-26 15:13 -22.22808 166.51236 13803 ft 345 kts 276°
2026-04-26 15:13 -22.22712 166.48650 13163 ft 343 kts 275°
2026-04-26 15:14 -22.22615 166.46074 12554 ft 342 kts 275°
2026-04-26 15:14 -22.22519 166.43509 11949 ft 341 kts 275°
2026-04-26 15:14 -22.22423 166.40958 11349 ft 339 kts 275°
2026-04-26 15:14 -22.22328 166.38433 10967 ft 331 kts 275°
2026-04-26 15:15 -22.22239 166.36015 10836 ft 314 kts 275°
2026-04-26 15:15 -22.22158 166.33709 10706 ft 301 kts 275°
2026-04-26 15:15 -22.22081 166.31494 10581 ft 288 kts 275°
2026-04-26 15:15 -22.22000 166.29376 10456 ft 276 kts 275°
2026-04-26 15:16 -22.21921 166.27353 10331 ft 264 kts 276°
2026-04-26 15:16 -22.21843 166.25414 10205 ft 253 kts 276°
2026-04-26 15:16 -22.21762 166.23571 10088 ft 248 kts 275°
2026-04-26 15:16 -22.21679 166.21709 9957 ft 248 kts 274°
2026-04-26 15:17 -22.21598 166.19801 9809 ft 262 kts 273°
2026-04-26 15:17 -22.21552 166.18482 9770 ft 266 kts 272°
2026-04-26 15:17 -22.21492 166.15811 9166 ft 268 kts 274°
2026-04-26 15:17 -22.21421 166.13797 8735 ft 268 kts 275°
2026-04-26 15:18 -22.21331 166.11790 8358 ft 268 kts 275°
2026-04-26 15:18 -22.21240 166.09780 7780 ft 268 kts 274°
2026-04-26 15:18 -22.21148 166.07788 7308 ft 265 kts 273°
2026-04-26 15:18 -22.21061 166.05782 7055 ft 266 kts 272°
2026-04-26 15:19 -22.20985 166.03833 6903 ft 255 kts 275°
2026-04-26 15:19 -22.20598 166.02010 6773 ft 244 kts 292°
2026-04-26 15:19 -22.19736 166.00480 6622 ft 237 kts 310°
2026-04-26 15:19 -22.18453 165.99383 6363 ft 238 kts 330°
2026-04-26 15:20 -22.16940 165.98661 6050 ft 238 kts 336°
2026-04-26 15:20 -22.15368 165.98108 5635 ft 237 kts 342°
2026-04-26 15:20 -22.13793 165.97673 5139 ft 238 kts 349°
2026-04-26 15:20 -22.12148 165.97602 4693 ft 235 kts
2026-04-26 15:21 -22.10597 165.98054 4346 ft 228 kts 25°
2026-04-26 15:21 -22.09168 165.98796 4064 ft 228 kts 26°
2026-04-26 15:21 -22.07759 165.99570 3793 ft 227 kts 26°
2026-04-26 15:21 -22.06362 166.00348 3521 ft 225 kts 26°
2026-04-26 15:22 -22.04979 166.01126 3254 ft 223 kts 27°
2026-04-26 15:22 -22.03610 166.01906 3143 ft 221 kts 27°
2026-04-26 15:22 -22.02279 166.02653 3051 ft 209 kts 29°
2026-04-26 15:22 -22.01035 166.03370 2966 ft 197 kts 29°
2026-04-26 15:23 -21.99866 166.04050 2864 ft 186 kts 30°
2026-04-26 15:23 -21.98733 166.04729 2781 ft 187 kts 27°
2026-04-26 15:23 -21.97598 166.05373 2696 ft 187 kts 27°
2026-04-26 15:23 -21.96477 166.06078 2610 ft 187 kts 35°
2026-04-26 15:24 -21.95586 166.07087 2508 ft 186 kts 56°
2026-04-26 15:24 -21.95112 166.08372 2345 ft 186 kts 78°
2026-04-26 15:24 -21.95134 166.09751 2086 ft 184 kts 101°
2026-04-26 15:24 -21.95617 166.10955 1917 ft 166 kts 124°
2026-04-26 15:25 -21.96232 166.11935 1738 ft 150 kts 117°
2026-04-26 15:25 -21.96568 166.12562 1612 ft 142 kts 118°
2026-04-26 15:25 -21.97223 166.13736 1372 ft 134 kts 118°
2026-04-26 15:25 -21.97706 166.14598 1212 ft 136 kts 114°
2026-04-26 15:26 -21.98195 166.15483 1023 ft 139 kts 114°
2026-04-26 15:26 -21.98692 166.16378 824 ft 140 kts 115°
2026-04-26 15:26 -21.99193 166.17275 649 ft 140 kts 115°
2026-04-26 15:26 -21.99677 166.18175 468 ft 140 kts 118°
2026-04-26 15:27 -22.00196 166.19055 294 ft 138 kts 114°
2026-04-26 15:27 -22.00685 166.19945 94 ft 138 kts 118°
2026-04-26 15:27 -22.01159 166.20779 53 ft 112 kts 121°
2026-04-26 15:27 -22.01416 166.21228 56 ft 36 kts 120°
2026-04-26 15:28 -22.01475 166.21372 57 ft 10 kts 72°
2026-04-26 15:28 -22.01446 166.21405 61 ft 3 kts 39°
2026-04-26 15:28 -22.01432 166.21417 57 ft 6 kts 36°
2026-04-26 15:28 -22.01371 166.21456 57 ft 10 kts 30°
2026-04-26 15:29 -22.01322 166.21487 60 ft 7 kts 31°
2026-04-26 15:29 -22.01314 166.21543 59 ft 8 kts 112°
2026-04-26 15:29 -22.01333 166.21578 60 ft 0 kts 121°